Location: Basses Si�yes
(44.0835°N, 6.2037°E)
Time: 18:14:46
(UTC+00:00)

USA 234 - Pass Details

Date: 27 February 2020
Orbit: 1101 x 1107 km, 123.0° (Epoch: 26 March)

Event Time Altitude Azimuth Distance (km) Brightness Sun altitude
Exits shadow 20:42:40 40° 358° (N) 1,579 4.1 -36.3°
Drops below altitude 10° 20:47:37 10° 315° (NW) 2,965 6.2 -37.0°
Sets 20:50:13 0° 309° (NW) 3,925 7.1 -37.4°
